Location: Kellogg
(38.0159°N, 90.0546°W)
Time: 08:23:34
(UTC+00:00)

Vanguard 1 Rocket - Pass Details

Date: 22 September 2024
Orbit: 650 x 4218 km, 34.3° (Epoch: 05 October)

Event Time Altitude Azimuth Distance (km) Brightness Sun altitude
Rises 08:59:07 0° 253° (WSW) 4,706 - -32.7°
Reaches altitude 10° 09:01:36 10° 251° (WSW) 4,043 - -32.3°
Exits shadow 09:08:32 51° 238° (WSW) 2,774 9.3 -31.1°
Maximum altitude 09:13:15 75° 168° (SSE) 2,771 9.6 -30.3°
Drops below altitude 10° 09:35:44 10° 89° (E) 7,159 12.8 -26.3°
Sets 09:41:56 0° 88° (E) 8,393 13.4 -25.2°
